Poplar Bluff, MO

10:18 PM CST on January 22, 2018 (GMT -0600)
Poplar Bluff Municipal

Weather History for KPOF - April, 2012

Change the Weather History Date:

Saturday, April 28, 2012

  Actual Average Record
Temperature  
Mean Temperature 68 °F -  
Max Temperature 82 °F 74 °F 88 °F (1952)
Min Temperature 55 °F 49 °F 32 °F (1928)
Cooling Degree Days 4    
Growing Degree Days 18 (Base 50)    
Moisture  
Dew Point 60 °F    
Average Humidity 68    
Maximum Humidity 89    
Minimum Humidity 47    
Precipitation  
Precipitation 0.00 in - - ()
Sea Level Pressure  
Sea Level Pressure 29.89 in    
Wind  
Wind Speed 7 mph (SSW)    
Max Wind Speed 16 mph    
Max Gust Speed 23 mph    
Visibility 10 miles    
Events      
Averages and records for this station are not official NWS values.
T = Trace of Precipitation, MM = Missing Value Source: NWS Daily Summary

Daily Weather History Graph

Daily Weather History Graph

Search for Another Location

Airport or City:

Trip Planner

Search our weather history database for the weather conditions in past years. The results will help you decide how hot, cold, wet, or windy it might be!

Date:

Astronomy

Apr. 28, 2012 Rise Set
Actual Time 6:10 AM CDT 7:47 PM CDT
Civil Twilight 5:42 AM CDT 8:15 PM CDT
Nautical Twilight 5:09 AM CDT 8:48 PM CDT
Astronomical Twilight 4:34 AM CDT 9:23 PM CDT
Moon 11:50 AM CDT (4/28) 1:11 AM CDT (4/28)
Length of Visible Light 14h 32m
Length of Day
13h 37m
Waxing Crescent, 43% of the Moon is Illuminated
Apr 28
Waxing Crescent
Apr 29
First Quarter
May 5
Full
May 12
Last Quarter
May 20
New

Hourly Weather History & Observations

Time (CDT) Temp. Heat Index Dew Point Humidity Pressure Visibility Wind Dir Wind Speed Gust Speed Precip Events Conditions
12:53 AM 62.1 °F - 53.1 °F 72% 29.89 in 10.0 mi ESE 4.6 mph - N/A   Scattered Clouds
2:53 AM 57.0 °F - 53.1 °F 87% 29.84 in 10.0 mi Calm Calm - N/A   Clear
3:53 AM 55.9 °F - 52.0 °F 87% 29.84 in 10.0 mi Calm Calm - N/A   Clear
4:53 AM 55.0 °F - 52.0 °F 89% 29.85 in 9.0 mi Calm Calm - N/A   Clear
6:53 AM 57.0 °F - 54.0 °F 89% 29.88 in 8.0 mi Calm Calm - N/A   Clear
7:51 AM 68.0 °F - 62.6 °F 83% 29.90 in 10.0 mi South 10.4 mph - N/A   Mostly Cloudy
7:53 AM 68.0 °F - 62.1 °F 81% 29.90 in 10.0 mi South 9.2 mph - N/A   Mostly Cloudy
8:53 AM 70.0 °F - 63.0 °F 78% 29.91 in 9.0 mi SSW 16.1 mph 21.9 mph N/A   Overcast
9:53 AM 72.0 °F - 63.0 °F 73% 29.90 in 10.0 mi South 16.1 mph 20.7 mph N/A   Overcast
10:53 AM 73.9 °F - 62.1 °F 66% 29.91 in 10.0 mi SSW 16.1 mph 23.0 mph N/A   Overcast
11:40 AM 78.8 °F - 62.6 °F 57% 29.91 in 10.0 mi South 15.0 mph 21.9 mph N/A   Mostly Cloudy
11:53 AM 77.0 °F - 61.0 °F 58% 29.90 in 10.0 mi SW 16.1 mph 21.9 mph N/A   Overcast
12:53 PM 79.0 °F - 61.0 °F 54% 29.89 in 10.0 mi SSW 16.1 mph 23.0 mph N/A   Scattered Clouds
1:53 PM 80.1 °F 80.9 °F 60.1 °F 50% 29.88 in 10.0 mi SW 16.1 mph - N/A   Mostly Cloudy
2:53 PM 82.0 °F 82.7 °F 61.0 °F 49% 29.87 in 10.0 mi South 11.5 mph 21.9 mph N/A   Mostly Cloudy
3:53 PM 82.0 °F 82.4 °F 60.1 °F 47% 29.86 in 10.0 mi SSW 15.0 mph - N/A   Clear
4:53 PM 82.0 °F 82.7 °F 61.0 °F 49% 29.86 in 10.0 mi SW 15.0 mph 18.4 mph N/A   Partly Cloudy
5:53 PM 81.0 °F 81.7 °F 61.0 °F 50% 29.85 in 10.0 mi WSW 13.8 mph 19.6 mph N/A   Scattered Clouds
6:53 PM 78.1 °F - 62.1 °F 58% 29.86 in 10.0 mi West 4.6 mph - N/A   Clear
7:53 PM 77.0 °F - 63.0 °F 62% 29.89 in 10.0 mi Calm Calm - N/A   Overcast
8:53 PM 73.9 °F - 63.0 °F 68% 29.93 in 10.0 mi Calm Calm - N/A   Overcast
9:53 PM 72.0 °F - 62.1 °F 71% 29.95 in 10.0 mi SE 3.5 mph - N/A   Mostly Cloudy
10:53 PM 70.0 °F - 63.0 °F 78% 29.97 in 10.0 mi Calm Calm - N/A   Overcast
11:53 PM 70.0 °F - 62.1 °F 76% 29.97 in 10.0 mi SSE 3.5 mph - N/A   Mostly Cloudy